Simultaneous Nadir Overpasses (SNOs) Predictions

Prediction of SNOs near equator between AQUA and NPP Satellite Orbit:

Table of predicted SNOs near equator for the next 14.0 days since TLE Epoch: 10/27/2012
Index Date (AQUA) Time (AQUA) AQUA Lat,Lon Date (NPP) Time (NPP) NPP Lat,Lon Distance(km) Time Diff (sec)
1 10/28/2012 01:47:02 -2.93, -3.38 10/28/2012 01:37:57 -2.74, -4.15 88.16 545
2 10/30/2012 17:14:46 5.51, -55.69 10/30/2012 17:04:58 5.39, -56.31 70.59 588
3 11/02/2012 09:30:32 3.44, 60.67 11/02/2012 09:21:18 3.30, 59.92 84.32 554
4 11/05/2012 00:58:01 -5.91, 8.44 11/05/2012 00:48:07 -5.75, 7.84 68.71 594
5 11/05/2012 01:46:15 1.26, 177.05 11/05/2012 01:37:37 1.10, 176.18 98.81 518
6 11/07/2012 17:13:40 -3.61, 124.86 11/07/2012 17:04:24 -3.43, 124.13 83.96 556




NCC Satellite Simultaneous Nadir Overpasses (SNOs) Prediction Service
